Moses Lake, WA

10:12 PM PST on January 19, 2017 (GMT -0800)
Grant County International

Weather History for KMWH - May, 2013

Change the Weather History Date:

Friday, May 3, 2013

  Actual Average Record
Temperature  
Mean Temperature 65 °F 55 °F  
Max Temperature 80 °F 70 °F 85 °F (2016)
Min Temperature 50 °F 41 °F 30 °F (2001)
Degree Days  
Heating Degree Days 0 10  
Month to date heating degree days 29 32  
Since 1 July heating degree days 5137 5649  
Cooling Degree Days 0 0  
Month to date cooling degree days 0 0  
Year to date cooling degree days 0 1  
Growing Degree Days 16 (Base 50)    
Moisture  
Dew Point 33 °F    
Average Humidity 36    
Maximum Humidity 54    
Minimum Humidity 17    
Precipitation  
Precipitation 0.00 in 0.01 in 0.11 in (1999)
Month to date precipitation 0.00 0.05  
Year to date precipitation 1.38 3.47  
Sea Level Pressure  
Sea Level Pressure 30.23 in    
Wind  
Wind Speed 13 mph (North)    
Max Wind Speed 24 mph    
Max Gust Speed 31 mph    
Visibility 10 miles    
Events      
T = Trace of Precipitation, MM = Missing Value Source: NWS Daily Summary

Daily Weather History Graph

Daily Weather History Graph

Search for Another Location

Airport or City:

Trip Planner

Search our weather history database for the weather conditions in past years. The results will help you decide how hot, cold, wet, or windy it might be!

Date:

Astronomy

May. 03, 2013 Rise Set
Actual Time 5:37 AM PDT 8:11 PM PDT
Civil Twilight 5:03 AM PDT 8:46 PM PDT
Nautical Twilight 4:19 AM PDT 9:29 PM PDT
Astronomical Twilight 3:29 AM PDT 10:20 PM PDT
Moon 2:30 AM PDT (5/3) 1:47 PM PDT (5/3)
Length of Visible Light 15h 43m
Length of Day
14h 34m
Waning Crescent, 36% of the Moon is Illuminated
May 3
Waning Crescent
May 9
New
May 17
First Quarter
May 24
Full
May 31
Last Quarter

Hourly Weather History & Observations

Time (PDT) Temp. Dew Point Humidity Pressure Visibility Wind Dir Wind Speed Gust Speed Precip Events Conditions
12:52 AM 55.9 °F 36.0 °F 47% 30.25 in 10.0 mi NNE 3.5 mph - N/A   Clear
1:52 AM 55.9 °F 35.1 °F 45% 30.25 in 10.0 mi Calm Calm - N/A   Partly Cloudy
2:52 AM 59.0 °F 32.0 °F 36% 30.25 in 10.0 mi NNW 10.4 mph - N/A   Mostly Cloudy
3:52 AM 57.0 °F 35.1 °F 44% 30.25 in 10.0 mi North 16.1 mph - N/A   Scattered Clouds
4:52 AM 55.9 °F 36.0 °F 47% 30.27 in 10.0 mi NNW 17.3 mph - N/A   Clear
5:42 AM 53.6 °F 37.4 °F 54% 30.28 in 10.0 mi NNE 12.7 mph - N/A   Clear
5:52 AM 54.0 °F 37.0 °F 53% 30.28 in 10.0 mi NNE 10.4 mph - N/A   Clear
6:52 AM 57.2 °F 37.4 °F 48% 30.29 in 10.0 mi North 16.1 mph - N/A   Clear
7:52 AM 62.1 °F 37.9 °F 41% 30.28 in 10.0 mi North 18.4 mph 28.8 mph N/A   Clear
8:52 AM 64.4 °F 35.6 °F 34% 30.29 in 10.0 mi North 23.0 mph 29.9 mph N/A   Clear
9:52 AM 69.1 °F 35.1 °F 29% 30.28 in 10.0 mi North 19.6 mph 27.6 mph N/A   Clear
10:52 AM 72.0 °F 34.0 °F 25% 30.27 in 10.0 mi North 19.6 mph 27.6 mph N/A   Clear
11:52 AM 73.9 °F 32.0 °F 21% 30.25 in 10.0 mi North 15.0 mph 24.2 mph N/A   Clear
12:52 PM 75.9 °F 32.0 °F 20% 30.24 in 10.0 mi North 18.4 mph 26.5 mph N/A   Clear
1:52 PM 75.9 °F 32.0 °F 20% 30.22 in 10.0 mi North 8.1 mph 21.9 mph N/A   Clear
2:52 PM 78.1 °F 30.9 °F 18% 30.20 in 10.0 mi North 16.1 mph 23.0 mph N/A   Clear
3:52 PM 78.1 °F 30.0 °F 17% 30.17 in 10.0 mi North 13.8 mph 21.9 mph N/A   Clear
4:52 PM 79.0 °F 30.0 °F 17% 30.16 in 10.0 mi NE 16.1 mph 20.7 mph N/A   Clear
5:52 PM 78.1 °F 30.0 °F 17% 30.17 in 10.0 mi North 11.5 mph - N/A   Clear
6:52 PM 77.0 °F 30.0 °F 18% 30.15 in 10.0 mi NNE 10.4 mph - N/A   Clear
7:52 PM 72.0 °F 30.9 °F 22% 30.14 in 10.0 mi NNE 10.4 mph - N/A   Clear
8:52 PM 64.9 °F 30.0 °F 27% 30.16 in 10.0 mi North 9.2 mph - N/A   Clear
9:52 PM 60.1 °F 30.0 °F 32% 30.18 in 10.0 mi North 8.1 mph - N/A   Clear
10:52 PM 57.9 °F 32.0 °F 37% 30.18 in 10.0 mi NNE 4.6 mph - N/A   Clear
11:52 PM 57.0 °F 32.0 °F 39% 30.19 in 10.0 mi Calm Calm - N/A   Clear